Location: Garbet
(42.8837°N, 1.2115°E)
Time: 01:43:30
(UTC+00:00)

S3M - Pass Details

Date: 13 December 2025
Orbit: 947 x 1004 km, 83.0° (Epoch: 12 January)

Event Time Altitude Azimuth Distance (km) Brightness Sun altitude
Rises 18:50:34 0° 180° (S) 3,712 7.1 -26.4°
Reaches altitude 10° 18:53:06 10° 178° (S) 2,762 6.4 -26.9°
Enters shadow 18:59:20 74° 103° (ESE) 1,033 3.8 -28.0°
